Location: Unspecified
(54.1780°N, 0.0000°E)
Time: 00:37:19
(UTC+00:00)

Altair - Pass Details

Date: 23 June 2019
Orbit: 1501 x 1683 km, 47.2° (Epoch: 19 July)

Event Time Altitude Azimuth Distance (km) Brightness Sun altitude
Rises 18:03:48 0° 192° (SSW) 4,679 10.0 18.6°
Reaches altitude 10° 18:07:46 10° 177° (S) 3,727 9.4 18.0°
Maximum altitude 18:14:14 21° 133° (SE) 2,991 8.6 17.1°
Drops below altitude 10° 18:20:52 10° 89° (E) 3,838 9.1 16.2°
Sets 18:24:59 0° 75° (ENE) 4,858 9.6 15.6°
